TimeEST,TemperatureF,Dew PointF,Humidity,Sea Level PressureIn,VisibilityMPH,Wind Direction,Wind SpeedMPH,Gust SpeedMPH,PrecipitationIn,Events,Conditions,WindDirDegrees,DateUTC
12:15 AM,41.0,28.4,61,30.11,10.0,WNW,3.5,-,N/A,,Clear,300,2013-12-16 05:15:00
12:35 AM,37.4,28.4,70,30.10,10.0,WNW,3.5,-,N/A,,Clear,300,2013-12-16 05:35:00
12:55 AM,37.4,28.4,70,30.10,10.0,West,4.6,-,N/A,,Clear,270,2013-12-16 05:55:00
1:15 AM,35.6,30.2,81,30.10,10.0,Calm,Calm,-,N/A,,Clear,0,2013-12-16 06:15:00
1:35 AM,33.8,30.2,87,30.10,10.0,West,5.8,-,N/A,,Clear,280,2013-12-16 06:35:00
1:55 AM,35.6,30.2,81,30.11,10.0,Calm,Calm,-,N/A,,Clear,0,2013-12-16 06:55:00
2:15 AM,35.6,30.2,81,30.11,10.0,West,3.5,-,N/A,,Clear,270,2013-12-16 07:15:00
2:35 AM,33.8,30.2,87,30.11,10.0,Calm,Calm,-,N/A,,Clear,0,2013-12-16 07:35:00
2:55 AM,33.8,30.2,87,30.12,10.0,WSW,3.5,-,N/A,,Clear,240,2013-12-16 07:55:00
3:15 AM,33.8,30.2,87,30.12,10.0,West,3.5,-,N/A,,Clear,260,2013-12-16 08:15:00
3:35 AM,33.8,30.2,87,30.13,10.0,West,3.5,-,N/A,,Clear,280,2013-12-16 08:35:00
3:55 AM,33.8,30.2,87,30.12,10.0,Calm,Calm,-,N/A,,Clear,0,2013-12-16 08:55:00
4:15 AM,33.8,30.2,87,30.13,10.0,WNW,4.6,-,N/A,,Clear,290,2013-12-16 09:15:00
4:35 AM,32.0,32.0,100,30.13,10.0,NW,3.5,-,N/A,,Clear,310,2013-12-16 09:35:00
4:55 AM,32.0,32.0,100,30.13,10.0,WNW,3.5,-,N/A,,Clear,290,2013-12-16 09:55:00
5:15 AM,32.0,32.0,100,30.12,10.0,Calm,Calm,-,N/A,,Clear,0,2013-12-16 10:15:00
5:35 AM,32.0,30.2,93,30.12,10.0,Calm,Calm,-,N/A,,Clear,0,2013-12-16 10:35:00
5:55 AM,32.0,30.2,93,30.12,10.0,Calm,Calm,-,N/A,,Clear,0,2013-12-16 10:55:00
6:15 AM,32.0,30.2,93,30.13,10.0,Calm,Calm,-,N/A,,Clear,0,2013-12-16 11:15:00
6:35 AM,32.0,30.2,93,30.13,10.0,Calm,Calm,-,N/A,,Clear,0,2013-12-16 11:35:00
6:55 AM,30.2,30.2,100,30.13,10.0,Calm,Calm,-,N/A,,Clear,0,2013-12-16 11:55:00
7:15 AM,30.2,30.2,100,30.14,10.0,Calm,Calm,-,N/A,,Clear,0,2013-12-16 12:15:00
7:35 AM,32.0,32.0,100,30.14,10.0,Calm,Calm,-,N/A,,Clear,0,2013-12-16 12:35:00
7:55 AM,32.0,32.0,100,30.14,10.0,WSW,3.5,-,N/A,,Clear,240,2013-12-16 12:55:00
8:15 AM,32.0,32.0,100,30.15,10.0,Calm,Calm,-,N/A,,Clear,0,2013-12-16 13:15:00
8:35 AM,32.0,32.0,100,30.16,10.0,WSW,3.5,-,N/A,,Clear,240,2013-12-16 13:35:00
8:55 AM,33.8,32.0,93,30.16,10.0,WSW,3.5,-,N/A,,Clear,240,2013-12-16 13:55:00
9:15 AM,35.6,33.8,93,30.16,10.0,West,4.6,-,N/A,,Clear,260,2013-12-16 14:15:00
9:35 AM,37.4,33.8,87,30.17,10.0,Calm,Calm,-,N/A,,Clear,0,2013-12-16 14:35:00
9:55 AM,41.0,33.8,76,30.17,10.0,WSW,3.5,-,N/A,,Clear,240,2013-12-16 14:55:00
10:15 AM,42.8,32.0,66,30.17,10.0,West,3.5,-,N/A,,Clear,270,2013-12-16 15:15:00
10:35 AM,44.6,33.8,66,30.18,10.0,West,4.6,-,N/A,,Clear,260,2013-12-16 15:35:00
10:55 AM,46.4,33.8,62,30.17,10.0,Calm,Calm,-,N/A,,Clear,0,2013-12-16 15:55:00
11:15 AM,50.0,33.8,54,30.17,10.0,WSW,3.5,-,N/A,,Clear,240,2013-12-16 16:15:00
11:35 AM,51.8,32.0,47,30.16,10.0,West,4.6,-,N/A,,Clear,270,2013-12-16 16:35:00
11:55 AM,51.8,33.8,50,30.15,10.0,SSW,4.6,-,N/A,,Clear,210,2013-12-16 16:55:00
12:15 PM,53.6,32.0,44,30.13,10.0,WSW,5.8,-,N/A,,Clear,250,2013-12-16 17:15:00
12:35 PM,53.6,32.0,44,30.13,10.0,WSW,5.8,-,N/A,,Clear,240,2013-12-16 17:35:00
12:55 PM,55.4,32.0,41,30.12,10.0,WSW,8.1,-,N/A,,Clear,240,2013-12-16 17:55:00
1:15 PM,55.4,32.0,41,30.11,10.0,WSW,9.2,-,N/A,,Clear,250,2013-12-16 18:15:00
1:35 PM,57.2,32.0,38,30.10,10.0,WSW,6.9,-,N/A,,Clear,240,2013-12-16 18:35:00
1:55 PM,59.0,32.0,36,30.10,10.0,West,6.9,-,N/A,,Clear,260,2013-12-16 18:55:00
2:15 PM,59.0,32.0,36,30.09,10.0,West,12.7,16.1,N/A,,Clear,260,2013-12-16 19:15:00
2:35 PM,60.8,32.0,34,30.09,10.0,SW,6.9,-,N/A,,Clear,230,2013-12-16 19:35:00
2:55 PM,60.8,32.0,34,30.10,10.0,WSW,8.1,-,N/A,,Clear,250,2013-12-16 19:55:00
3:15 PM,60.8,32.0,34,30.09,10.0,West,5.8,-,N/A,,Clear,260,2013-12-16 20:15:00
3:35 PM,60.8,32.0,34,30.09,10.0,WSW,5.8,-,N/A,,Clear,240,2013-12-16 20:35:00
3:55 PM,60.8,32.0,34,30.09,10.0,SW,10.4,-,N/A,,Clear,230,2013-12-16 20:55:00
4:15 PM,60.8,32.0,34,30.10,10.0,SW,4.6,-,N/A,,Clear,220,2013-12-16 21:15:00
4:35 PM,60.8,32.0,34,30.11,10.0,SW,6.9,-,N/A,,Clear,220,2013-12-16 21:35:00
4:55 PM,59.0,32.0,36,30.10,10.0,SW,5.8,-,N/A,,Clear,230,2013-12-16 21:55:00
5:15 PM,59.0,32.0,36,30.10,10.0,Calm,Calm,-,N/A,,Clear,0,2013-12-16 22:15:00
5:35 PM,55.4,32.0,41,30.10,10.0,SSW,3.5,-,N/A,,Clear,210,2013-12-16 22:35:00
5:55 PM,55.4,32.0,41,30.11,10.0,SW,4.6,-,N/A,,Clear,220,2013-12-16 22:55:00
6:15 PM,53.6,32.0,44,30.11,10.0,SW,5.8,-,N/A,,Clear,220,2013-12-16 23:15:00
6:35 PM,53.6,32.0,44,30.11,10.0,South,3.5,-,N/A,,Clear,190,2013-12-16 23:35:00
6:55 PM,53.6,32.0,44,30.12,10.0,SSW,3.5,-,N/A,,Clear,200,2013-12-16 23:55:00
7:15 PM,53.6,32.0,44,30.13,10.0,SSW,3.5,-,N/A,,Clear,200,2013-12-17 00:15:00
7:35 PM,51.8,32.0,47,30.13,10.0,SSW,3.5,-,N/A,,Clear,210,2013-12-17 00:35:00
7:55 PM,51.8,32.0,47,30.13,10.0,SW,3.5,-,N/A,,Clear,220,2013-12-17 00:55:00
8:15 PM,50.0,32.0,50,30.14,10.0,SW,8.1,-,N/A,,Clear,220,2013-12-17 01:15:00
8:35 PM,50.0,32.0,50,30.13,10.0,SW,4.6,-,N/A,,Clear,220,2013-12-17 01:35:00
8:55 PM,50.0,32.0,50,30.13,10.0,SW,5.8,-,N/A,,Clear,230,2013-12-17 01:55:00
9:15 PM,50.0,32.0,50,30.13,10.0,WSW,5.8,-,N/A,,Clear,240,2013-12-17 02:15:00
9:35 PM,50.0,32.0,50,30.13,10.0,SW,9.2,-,N/A,,Clear,230,2013-12-17 02:35:00
9:55 PM,50.0,32.0,50,30.13,10.0,WSW,8.1,-,N/A,,Clear,240,2013-12-17 02:55:00
10:15 PM,46.4,32.0,57,30.14,10.0,WSW,8.1,-,N/A,,Clear,240,2013-12-17 03:15:00
10:35 PM,46.4,32.0,57,30.14,10.0,WSW,10.4,-,N/A,,Clear,240,2013-12-17 03:35:00
10:55 PM,46.4,32.0,57,30.13,10.0,WSW,8.1,-,N/A,,Clear,240,2013-12-17 03:55:00
11:15 PM,46.4,32.0,57,30.14,10.0,WSW,8.1,-,N/A,,Clear,240,2013-12-17 04:15:00
11:35 PM,46.4,32.0,57,30.14,10.0,WSW,9.2,-,N/A,,Clear,250,2013-12-17 04:35:00
11:55 PM,44.6,32.0,61,30.14,10.0,WSW,8.1,-,N/A,,Clear,250,2013-12-17 04:55:00